Weather History for KAVP - March, 2013

Change the Weather History Date:

Tuesday, March 26, 2013

  Actual Average Record
Temperature  
Mean Temperature 39 °F 40 °F  
Max Temperature 48 °F 50 °F 76 °F (1945)
Min Temperature 29 °F 31 °F 8 °F (1960)
Degree Days  
Heating Degree Days 26 25  
Month to date heating degree days 802 755  
Since 1 July heating degree days 5026 5361  
Cooling Degree Days 0 0  
Month to date cooling degree days 0 0  
Year to date cooling degree days 0 0  
Moisture  
Dew Point 29 °F    
Average Humidity 69    
Maximum Humidity 92    
Minimum Humidity 45    
Precipitation  
Precipitation 0.03 in 0.09 in 1.19 in (2002)
Month to date precipitation 1.53 2.08  
Year to date precipitation 4.86 6.48  
Sea Level Pressure  
Sea Level Pressure 29.78 in    
Wind  
Wind Speed 8 mph (WNW)    
Max Wind Speed 22 mph    
Max Gust Speed 29 mph    
Visibility 9 miles    
Events Rain , Snow    
T = Trace of Precipitation, MM = Missing Value Source: NWS Daily Summary

Daily Weather History Graph

Daily Weather History Graph

Search for Another Location

Airport or City:

Trip Planner

Search our weather history database for the weather conditions in past years. The results will help you decide how hot, cold, wet, or windy it might be!

Date:

Astronomy

Mar. 26, 2013 Rise Set
Actual Time 6:55 AM EDT 7:21 PM EDT
Civil Twilight 6:28 AM EDT 7:49 PM EDT
Nautical Twilight 5:55 AM EDT 8:22 PM EDT
Astronomical Twilight 5:22 AM EDT 8:55 PM EDT
Moon 6:56 PM EDT (3/26) 6:11 AM EDT (3/26)
Length of Visible Light 13h 21m
Length of Day
12h 26m
Waxing Gibbous, 99% of the Moon is Illuminated
Mar 26
Waxing Gibbous
Mar 27
Full
Apr 3
Last Quarter
Apr 10
New
Apr 18
First Quarter

Hourly Weather History & Observations

Time (EDT) Temp. Windchill Dew Point Humidity Pressure Visibility Wind Dir Wind Speed Gust Speed Precip Events Conditions
12:54 AM 32.0 °F 25.6 °F 30.9 °F 96% 29.64 in 7.0 mi SSW 6.9 mph - N/A   Overcast
1:54 AM 33.1 °F 28.7 °F 30.0 °F 89% 29.65 in 10.0 mi SW 4.6 mph - N/A   Overcast
2:54 AM 33.1 °F 27.7 °F 30.0 °F 89% 29.67 in 10.0 mi SSW 5.8 mph - N/A   Overcast
3:54 AM 32.0 °F 27.5 °F 28.9 °F 88% 29.68 in 10.0 mi WSW 4.6 mph - N/A   Overcast
4:54 AM 32.0 °F - 28.9 °F 88% 29.70 in 10.0 mi Calm Calm - N/A   Overcast
5:54 AM 32.0 °F 28.7 °F 28.9 °F 88% 29.72 in 10.0 mi SW 3.5 mph - N/A   Overcast
6:54 AM 32.0 °F 28.7 °F 28.9 °F 88% 29.74 in 10.0 mi SW 3.5 mph - N/A   Overcast
7:54 AM 34.0 °F 27.2 °F 27.0 °F 75% 29.76 in 10.0 mi NW 8.1 mph - N/A   Overcast
8:41 AM 33.8 °F 26.4 °F 26.6 °F 75% 29.76 in 10.0 mi WNW 9.2 mph - N/A   Overcast
8:54 AM 34.0 °F - 27.0 °F 75% 29.78 in 10.0 mi Calm Calm - N/A   Overcast
9:54 AM 36.0 °F 28.5 °F 28.0 °F 73% 29.79 in 10.0 mi NNW 10.4 mph - N/A   Overcast
10:54 AM 39.0 °F 30.6 °F 28.9 °F 67% 29.79 in 10.0 mi WNW 15.0 mph 23.0 mph N/A   Overcast
11:54 AM 42.1 °F 38.4 °F 28.0 °F 58% 29.79 in 10.0 mi Variable 5.8 mph - N/A   Mostly Cloudy
12:54 PM 44.1 °F 37.4 °F 25.0 °F 47% 29.78 in 10.0 mi West 13.8 mph 19.6 mph 0.01 in   Mostly Cloudy
1:54 PM 45.0 °F 37.6 °F 25.0 °F 46% 29.78 in 10.0 mi NW 17.3 mph 24.2 mph N/A   Overcast
2:54 PM 43.0 °F 36.8 °F 28.0 °F 56% 29.79 in 10.0 mi NNW 11.5 mph 19.6 mph N/A   Overcast
3:54 PM 42.1 °F 34.5 °F 28.0 °F 58% 29.79 in 10.0 mi NNW 15.0 mph 24.2 mph N/A   Mostly Cloudy
3:58 PM 41.0 °F 33.5 °F 30.2 °F 65% 29.78 in 3.0 mi NNW 13.8 mph 24.2 mph 0.00 in Rain Light Rain
4:16 PM 42.8 °F 38.0 °F 33.8 °F 70% 29.78 in 10.0 mi West 8.1 mph - 0.00 in   Mostly Cloudy
4:54 PM 44.1 °F 38.6 °F 30.9 °F 60% 29.79 in 10.0 mi West 10.4 mph - 0.00 in   Scattered Clouds
5:15 PM 37.4 °F 30.8 °F 30.2 °F 75% 29.79 in 2.5 mi North 9.2 mph 27.6 mph 0.00 in Snow Light Snow
5:24 PM 37.4 °F 29.8 °F 30.2 °F 75% 29.79 in 3.0 mi NW 11.5 mph 16.1 mph 0.01 in Rain Light Rain
5:41 PM 39.2 °F 33.0 °F 32.0 °F 75% 29.79 in 10.0 mi NNW 9.2 mph - 0.02 in   Overcast
5:54 PM 41.0 °F 35.2 °F 32.0 °F 70% 29.81 in 10.0 mi NNW 9.2 mph - 0.02 in   Overcast
6:54 PM 37.9 °F 30.0 °F 30.9 °F 76% 29.84 in 10.0 mi West 12.7 mph 21.9 mph 0.00 in   Overcast
7:54 PM 36.0 °F 31.1 °F 30.9 °F 82% 29.86 in 10.0 mi SW 5.8 mph - N/A   Scattered Clouds
8:54 PM 35.1 °F 29.3 °F 30.0 °F 82% 29.88 in 10.0 mi SSW 6.9 mph - N/A   Clear
9:54 PM 34.0 °F 31.0 °F 28.9 °F 82% 29.90 in 10.0 mi Variable 3.5 mph - N/A   Clear
10:54 PM 35.1 °F 28.6 °F 27.0 °F 72% 29.90 in 10.0 mi WNW 8.1 mph - N/A   Clear
11:54 PM 33.1 °F 27.7 °F 26.1 °F 75% 29.91 in 10.0 mi Variable 5.8 mph - N/A   Clear